| time (UTC) | temp F | wind direction | speed MPH | gust MPH | rain 1hr in | rain 24hr in | rain mn in | humidity % | barometer mb |
| 20260506194601 | 63 | 194 | 5.0 | 10.0 | 0.00 | 0.00 | 0.00 | 56 | 1010.2 |
| 20260506193112 | 63 | 163 | 8.0 | 13.0 | 0.00 | 0.00 | 0.00 | 55 | 1010.1 |
| 20260506191559 | 63 | 186 | 6.0 | 11.0 | 0.00 | 0.00 | 0.00 | 55 | 1009.8 |
| 20260506190059 | 63 | 188 | 7.0 | 12.0 | 0.00 | 0.00 | 0.00 | 56 | 1009.6 |
| 20260506184557 | 64 | 193 | 9.0 | 15.0 | 0.00 | 0.00 | 0.00 | 55 | 1009.5 |
| 20260506183101 | 64 | 160 | 7.0 | 13.0 | 0.00 | 0.00 | 0.00 | 57 | 1009.3 |
| 20260506181615 | 65 | 187 | 5.0 | 10.0 | 0.00 | 0.00 | 0.00 | 58 | 1009.2 |
| 20260506180054 | 65 | 190 | 7.0 | 11.0 | 0.00 | 0.00 | 0.00 | 61 | 1009.0 |
| 20260506174551 | 65 | 185 | 5.0 | 10.0 | 0.00 | 0.00 | 0.00 | 62 | 1009.1 |
| 20260506173120 | 65 | 148 | 3.0 | 6.0 | 0.00 | 0.00 | 0.00 | 65 | 1008.9 |
| 20260506171555 | 66 | 179 | 2.0 | 4.0 | 0.00 | 0.00 | 0.00 | 66 | 1008.7 |
| 20260506170057 | 66 | 193 | 2.0 | 10.0 | 0.00 | 0.00 | 0.00 | 67 | 1008.6 |
| 20260506164548 | 66 | 152 | 4.0 | 7.0 | 0.00 | 0.00 | 0.00 | 70 | 1008.6 |
| 20260506163046 | 66 | 145 | 3.0 | 7.0 | 0.00 | 0.00 | 0.00 | 71 | 1008.5 |
| 20260506161546 | 67 | 191 | 4.0 | 7.0 | 0.00 | 0.00 | 0.00 | 72 | 1008.6 |
| 20260506160058 | 66 | 148 | 2.0 | 6.0 | 0.00 | 0.00 | 0.00 | 76 | 1008.4 |
| 20260506154547 | 66 | 155 | 3.0 | 6.0 | 0.00 | 0.00 | 0.00 | 74 | 1008.3 |
| 20260506153043 | 66 | 172 | 4.0 | 6.0 | 0.00 | 0.00 | 0.00 | 74 | 1008.4 |
| 20260506151545 | 66 | 205 | 3.0 | 10.0 | 0.00 | 0.00 | 0.00 | 73 | 1008.5 |
| 20260506150043 | 66 | 125 | 5.0 | 8.0 | 0.00 | 0.00 | 0.00 | 76 | 1008.3 |
| 20260506144543 | 66 | 359 | 0.0 | 8.0 | 0.00 | 0.00 | 0.00 | 77 | 1008.6 |
| 20260506143039 | 65 | 113 | 5.0 | 13.0 | 0.00 | 0.00 | 0.00 | 80 | 1008.5 |
| 20260506141538 | 65 | 160 | 2.0 | 10.0 | 0.00 | 0.00 | 0.00 | 85 | 1008.5 |
| 20260506140038 | 65 | 191 | 6.0 | 9.0 | 0.00 | 0.00 | 0.00 | 86 | 1008.7 |
| 20260506134534 | 64 | 174 | 4.0 | 9.0 | 0.00 | 0.00 | 0.00 | 88 | 1009.0 |
| 20260506133034 | 63 | 139 | 6.0 | 11.0 | 0.00 | 0.00 | 0.00 | 88 | 1009.3 |
| 20260506131545 | 63 | 184 | 4.0 | 11.0 | 0.00 | 0.00 | 0.00 | 87 | 1009.3 |
| 20260506130039 | 63 | 153 | 4.0 | 7.0 | 0.00 | 0.00 | 0.00 | 87 | 1009.7 |
| 20260506124533 | 63 | 180 | 4.0 | 10.0 | 0.00 | 0.00 | 0.00 | 88 | 1009.7 |
| 20260506123032 | 63 | 206 | 3.0 | 10.0 | 0.00 | 0.00 | 0.00 | 87 | 1009.6 |
| 20260506121531 | 64 | 280 | 3.0 | 9.0 | 0.00 | 0.00 | 0.00 | 89 | 1009.4 |
| 20260506120031 | 67 | 283 | 6.0 | 12.0 | 0.00 | 0.00 | 0.00 | 79 | 1009.4 |
| 20260506114529 | 68 | 267 | 4.0 | 8.0 | 0.00 | 0.00 | 0.00 | 74 | 1009.2 |
| 20260506113029 | 68 | 136 | 4.0 | 8.0 | 0.00 | 0.00 | 0.00 | 75 | 1009.1 |
| 20260506111527 | 68 | 203 | 7.0 | 13.0 | 0.00 | 0.00 | 0.00 | 74 | 1009.1 |
| 20260506110026 | 68 | 142 | 8.0 | 17.0 | 0.00 | 0.00 | 0.00 | 74 | 1009.1 |
| 20260506104521 | 67 | 194 | 5.0 | 12.0 | 0.00 | 0.00 | 0.00 | 81 | 1009.4 |
| 20260506103029 | 66 | 185 | 4.0 | 16.0 | 0.00 | 0.00 | 0.00 | 83 | 1009.2 |
| 20260506101514 | 64 | 77 | 4.0 | 12.0 | 0.00 | 0.00 | 0.00 | 92 | 1009.4 |
| 20260506100011 | 63 | 129 | 5.0 | 9.0 | 0.00 | 0.00 | 0.00 | 95 | 1009.7 |
| 20260506094504 | 61 | 134 | 5.0 | 9.0 | 0.00 | 0.00 | 0.00 | 96 | 1009.9 |
| 20260506093004 | 60 | 84 | 6.0 | 10.0 | 0.00 | 0.00 | 0.00 | 96 | 1009.9 |
| 20260506091559 | 60 | 113 | 7.0 | 12.0 | 0.00 | 0.00 | 0.00 | 97 | 1009.9 |
| 20260506090058 | 59 | 103 | 5.0 | 9.0 | 0.00 | 0.00 | 0.00 | 97 | 1009.9 |
| 20260506084557 | 58 | 145 | 3.0 | 9.0 | 0.00 | 0.00 | 0.00 | 97 | 1010.0 |
| 20260506083103 | 58 | 131 | 4.0 | 8.0 | 0.00 | 0.00 | 0.00 | 97 | 1010.0 |
| 20260506081557 | 58 | 102 | 5.0 | 10.0 | 0.00 | 0.00 | 0.00 | 97 | 1010.0 |
| 20260506073052 | 58 | 158 | 3.0 | 7.0 | 0.00 | 0.00 | 0.00 | 97 | 1009.8 |
| 20260506071553 | 57 | 131 | 4.0 | 7.0 | 0.00 | 0.00 | 0.00 | 97 | 1009.9 |
| 20260506061546 | 56 | 120 | 3.0 | 6.0 | 0.00 | 0.00 | 0.00 | 97 | 1010.2 |
| 20260506044541 | 57 | 163 | 3.0 | 6.0 | 0.00 | 0.00 | 0.00 | 96 | 1010.7 |
| 20260506043037 | 57 | 102 | 2.0 | 5.0 | 0.00 | 0.00 | 0.00 | 95 | 1010.3 |
| 20260506041536 | 57 | 188 | 6.0 | 12.0 | 0.00 | 0.00 | 0.00 | 95 | 1010.8 |
| 20260506040034 | 57 | 163 | 8.0 | 16.0 | 0.00 | 0.00 | 0.00 | 96 | 1010.7 |
| 20260506034534 | 57 | 142 | 3.0 | 13.0 | 0.00 | 0.00 | 0.00 | 96 | 1010.6 |
| 20260506033029 | 57 | 149 | 2.0 | 7.0 | 0.00 | 0.00 | 0.00 | 96 | 1010.4 |
| 20260506031527 | 57 | 184 | 3.0 | 8.0 | 0.00 | 0.00 | 0.00 | 97 | 1010.3 |
| 20260506030030 | 58 | 101 | 4.0 | 8.0 | 0.00 | 0.00 | 0.00 | 97 | 1010.5 |
| 20260506024536 | 58 | 113 | 2.0 | 5.0 | 0.00 | 0.00 | 0.00 | 97 | 1010.7 |
| 20260506023020 | 58 | 136 | 4.0 | 6.0 | 0.00 | 0.00 | 0.00 | 97 | 1010.9 |
| 20260506021517 | 58 | 90 | 3.0 | 6.0 | 0.00 | 0.00 | 0.00 | 97 | 1011.2 |
| 20260506020016 | 59 | 50 | 2.0 | 5.0 | 0.00 | 0.00 | 0.00 | 96 | 1011.1 |
| 20260506014518 | 59 | 47 | 2.0 | 4.0 | 0.00 | 0.00 | 0.00 | 96 | 1011.0 |
| 20260506013012 | 59 | 114 | 0.0 | 1.0 | 0.00 | 0.00 | 0.00 | 96 | 1011.8 |
| 20260506011511 | 59 | 336 | 0.0 | 1.0 | 0.00 | 0.00 | 0.00 | 96 | 1011.8 |
| 20260506010011 | 59 | 335 | 0.0 | 1.0 | 0.00 | 0.00 | 0.00 | 96 | 1012.0 |
| 20260506004509 | 59 | 87 | 0.0 | 2.0 | 0.00 | 0.00 | 0.00 | 96 | 1011.7 |
| 20260506003014 | 59 | 100 | 2.0 | 4.0 | 0.00 | 0.00 | 0.00 | 96 | 1011.3 |
| 20260506001506 | 59 | 97 | 2.0 | 4.0 | 0.00 | 0.00 | 0.00 | 95 | 1011.4 |
| 20260506000005 | 59 | 98 | 0.0 | 1.0 | 0.00 | 0.00 | 0.00 | 95 | 1011.7 |
| 20260505234503 | 59 | 134 | 1.0 | 6.0 | 0.00 | 0.00 | 0.00 | 95 | 1012.1 |
| 20260505233002 | 59 | 146 | 2.0 | 3.0 | 0.00 | 0.00 | 0.00 | 95 | 1012.0 |
| 20260505231501 | 59 | 153 | 0.0 | 1.0 | 0.00 | 0.00 | 0.00 | 95 | 1012.0 |
| 20260505224558 | 59 | 15 | 0.0 | 0.0 | 0.00 | 0.00 | 0.00 | 94 | 1012.1 |
| 20260505223058 | 59 | 6 | 1.0 | 2.0 | 0.00 | 0.00 | 0.00 | 94 | 1012.2 |
| 20260505221554 | 59 | 31 | 0.0 | 2.0 | 0.00 | 0.00 | 0.00 | 94 | 1012.4 |
| 20260505220052 | 59 | 49 | 0.0 | 2.0 | 0.00 | 0.00 | 0.00 | 93 | 1012.5 |
| 20260505214551 | 60 | 63 | 0.0 | 2.0 | 0.00 | 0.00 | 0.00 | 93 | 1012.6 |
| 20260505213057 | 60 | 278 | 0.0 | 1.0 | 0.00 | 0.00 | 0.00 | 92 | 1012.8 |
| 20260505211552 | 61 | 335 | 0.0 | 1.0 | 0.00 | 0.00 | 0.00 | 91 | 1012.8 |
| 20260505210049 | 61 | 43 | 0.0 | 2.0 | 0.00 | 0.00 | 0.00 | 91 | 1012.7 |
| 20260505204550 | 62 | 56 | 0.0 | 1.0 | 0.00 | 0.00 | 0.00 | 90 | 1012.8 |
| 20260505203050 | 62 | 340 | 1.0 | 3.0 | 0.00 | 0.00 | 0.00 | 89 | 1012.7 |
| 20260505201548 | 62 | 315 | 0.0 | 1.0 | 0.00 | 0.00 | 0.00 | 89 | 1012.7 |
| 20260505200147 | 62 | 71 | 0.0 | 2.0 | 0.00 | 0.00 | 0.00 | 89 | 1012.8 |